Weather Roundup
Issued by NWS

Home | Current Version | Previous Version | Text Only | Print | Product List | Glossary On
Versions: 1 2 3 4 5 6 7 8 9 10 11 12 13 14 15 16 17 18 19 20 21 22 23 24 25 26 27 28 29 30 31 32 33 34 35 36 37 38 39 40 41 42 43 44 45 46 47 48 49 50
000
NZUS93 KARX 231059
HRRWXR

CURRENT HOURLY OBSERVATIONS ACROSS
MUCH OF THE UPPER MISSISSIPPI VALLEY
NATIONAL WEATHER SERVICE LA CROSSE WI
600 AM CDT THU OCT 23 2014


...SOUTHEAST MINNESOTA...


CITY           SKY/WX    TMP DP  RH WIND       PRES   REMARKS
ROCHESTER      LGT RAIN  48  45  89 S10       30.04S
ROCHESTER/MAYO CLOUDY    50  43  78 S9        30.04S
WINONA         DRIZZLE   48  45  87 SE6       30.06F
AUSTIN         HVY RAIN  48  46  93 S7        30.03F
ALBERT LEA     LGT RAIN  50  48  93 S10       30.02S
DODGE CENTER   RAIN      48  46  93 S13       30.02S
PRESTON        CLOUDY    47  44  90 S9        30.05F
OWATONNA       DRIZZLE   50  46  87 S9        30.01F
FARIBAULT      CLOUDY    48  48 100 S3        30.02S FOG
$$

...ELSEWHERE IN MINNESOTA...


CITY           SKY/WX    TMP DP  RH WIND       PRES   REMARKS
MINNEAPOLIS    CLOUDY    52  49  89 S7        29.99F
INTNL FALLS    CLOUDY    49  47  93 VRB6      29.89R
DULUTH         LGT RAIN  48  44  86 S10       29.96S
RED WING       NOT AVBL
REDWOOD FALLS  FOG       46  46 100 SW6       29.98S VSB 1
MANKATO        CLOUDY    54  46  76 S8        30.00S
WORTHINGTON    CLOUDY    52  50  93 W7        30.02S VSB 1/2
FAIRMONT       CLOUDY    54  48  82 SW5       30.00S
$$

...SOUTHWEST WISCONSIN...


CITY           SKY/WX    TMP DP  RH WIND       PRES   REMARKS
LA CROSSE      LGT RAIN  50  45  83 S10       30.08S
PRAIRIE DU CHI CLOUDY    51  37  59 SE6       30.12S
BOSCOBEL       CLOUDY    49  37  63 CALM      30.14S
LONE ROCK      NOT AVBL
PLATTEVILLE    CLOUDY    40  37  86 SE5       30.16S
FORT MC COY    CLOUDY    51  37  58 S8        30.10S
VIROQUA        CLOUDY    48  38  70 S9        30.10S
WIS DELLS      CLOUDY    42  35  75 S9        30.14F
$$

...ELSEWHERE IN WISCONSIN...


CITY           SKY/WX    TMP DP  RH WIND       PRES   REMARKS
MILWAUKEE      PTCLDY    39  35  86 S5        30.21S
MADISON        MOCLDY    38  34  85 S6        30.19F WCI  33
GREEN BAY      PTCLDY    39  36  89 S7        30.18F WCI  34
EAU CLAIRE     CLOUDY    48  43  82 S6        30.04F
BLACK RVR FLS  CLOUDY    47  42  81 CALM      30.08S
MEDFORD        CLOUDY    41  39  93 SE7       30.08F
WAUSAU         LGT RAIN  42  39  89 SE7       30.11F
WIS RAPIDS     LGT RAIN  41  38  89 S6        30.14F FOG
MARSHFIELD     CLOUDY    43  39  86 SE9       30.09F
RICE LAKE      CLOUDY    47  43  85 SE8       30.04S
$$

...NORTHEAST IOWA...


CITY           SKY/WX    TMP DP  RH WIND       PRES   REMARKS
DECORAH        LGT RAIN  46  45  93 VRB7G13   30.08S
MASON CITY     RAIN      49  48  97 SE5       30.05R FOG
CHARLES CITY   CLOUDY    48  46  93 SE8       30.05F
OELWEIN        LGT RAIN  48  45  87 SE10      30.09F
$$

...ELSEWHERE IN IOWA...


CITY           SKY/WX    TMP DP  RH WIND       PRES   REMARKS
DES MOINES     CLOUDY    53  49  86 S9        30.04S
IOWA CITY      CLOUDY    46  41  82 SE6       30.14S
FORT DODGE     CLOUDY    54  50  87 SW7       30.02S
$$

...NORTHERN ILLINOIS...


CITY           SKY/WX    TMP DP  RH WIND       PRES   REMARKS
CHICAGO-OHARE  CLEAR     36  35  96 S5        30.21S WCI  32
CHICAGO-MIDWAY PTCLDY    42  38  85 S7        30.22S FOG
MOLINE         CLEAR     39  34  82 E5        30.16S
ROCKFORD       MOCLDY    38  34  85 SE5       30.21S WCI  34
PEORIA         PTCLDY    43  36  76 SE3       30.20S
$$

NOTE: "FAIR" INDICATES FEW OR NO CLOUDS BELOW 12,000 FEET WITH NO
SIGNIFICANT WEATHER AND/OR OBSTRUCTIONS TO VISIBILITY. WIND
SPEEDS ARE IN MILES-PER-HOUR.



USA.gov is the U.S. government's official web portal to all federal, state and local government web resources and services.